Wetbulb
48.03 47.58 46.88 46.31 45.96 45.42 44.50 44.52 44.78 45.33 45.14 44.75 44.61 44.49 44.25 44.09 44.39 43.92 44.03 44.60 44.31 44.58 45.88 43.94 44.50 44.95 42.75 41.99 41.94 43.35 42.05 39.53 38.37 33.80 33.75 33.24 30.75 30.10 29.96 30.45 30.70 33.00 30.62
47.75 46.74 46.24 46.00 45.48 44.50 44.01 44.07 44.16 43.15 43.49 42.95 42.43 42.17 42.08 41.92 42.07 41.54 41.28 41.97 41.26 41.33 42.23 41.99 41.34 41.29 39.94 39.97 38.73 38.91 40.07 39.42 37.86 30.80 31.23 29.90 29.83 30.19 29.76 28.55 28.90 31.56 29.56
45.41 44.47 44.12 44.27 44.06 43.29 43.19 42.93 42.49 41.72 41.20 41.07 40.63 39.86 39.97 40.51 40.30 40.49 40.26 40.37 40.72 40.39 40.76 40.26 39.67 39.11 37.05 36.96 35.70 35.26 35.62 35.14 36.83 33.31 29.90 30.55 28.81 29.24 28.38 27.95 26.91 28.39 28.94
44.15 43.78 42.55 42.48 42.66 42.93 43.01 41.92 40.88 40.63 39.81 39.62 39.67 39.41 39.23 39.13 38.93 38.78 38.61 38.50 38.80 38.73 38.66 38.16 37.71 36.78 35.46 35.37 33.78 33.52 32.84 32.53 33.53 32.06 29.74 28.31 27.23 27.56 27.48 24.65 24.01 26.20 25.21
41.63 41.62 41.68 41.76 41.43 40.90 39.97 39.56 39.27 38.72 38.66 38.62 37.94 37.88 38.10 37.58 37.36 37.29 36.86 36.69 36.35 36.39 35.70 34.76 34.33 33.19 31.06 33.44 31.45 31.74 31.16 31.17 31.70 30.41 27.85 27.13 25.36 23.26 23.92 26.10 24.66 24.32 22.97
39.99 39.68 39.72 38.69 37.98 37.46 37.24 36.91 36.50 36.16 36.36 36.14 35.39 35.37 35.23 36.33 36.87 36.40 35.16 35.12 34.50 33.43 32.83 32.66 31.42 28.62 28.65 28.88 29.42 32.37 32.37 30.39 29.61 28.53 27.30 25.16 24.42 24.31 24.42 23.84 22.72 22.03 19.46
37.73 37.54 36.65 35.88 35.29 35.30 35.09 34.59 33.95 34.25 34.79 34.21 34.21 34.11 33.74 34.42 36.16 35.90 34.66 33.15 33.08 32.96 31.89 30.31 29.12 27.68 28.88 27.96 28.45 28.10 26.90 28.24 31.04 28.88 26.72 26.27 23.69 23.42 23.59 21.73 21.81 21.92 19.72
35.76 34.75 33.71 32.88 32.58 32.76 32.79 32.66 32.97 33.47 33.12 33.06 32.89 33.09 32.80 33.19 35.34 35.27 33.99 33.02 32.36 32.02 31.28 30.31 29.22 28.36 28.43 27.64 25.89 23.47 22.20 22.04 22.78 24.34 24.83 23.31 23.58 23.50 23.03 22.01 20.70 16.29 16.57
32.69 31.04 30.61 30.64 29.95 30.13 30.04 30.88 31.79 31.60 31.34 31.34 31.37 31.17 30.94 31.54 34.20 34.26 32.77 32.17 30.96 30.17 30.10 29.57 28.72 27.98 29.18 29.30 24.16 21.30 20.00 20.47 24.08 24.97 24.67 24.07 23.44 22.42 20.02 17.78 14.93 15.84 13.81
28.20 27.69 28.44 28.78 28.35 28.08 28.92 29.08 30.05 30.23 29.35 29.59 29.08 29.80 30.02 29.77 32.09 33.04 32.21 31.48 29.66 28.08 28.01 27.20 27.41 27.49 28.90 29.04 23.18 21.31 18.91 19.13 21.43 20.36 19.34 19.01 18.42 18.09 18.79 18.22 17.50 16.21 13.19
25.58 25.45 25.71 26.49 26.01 27.07 27.59 28.37 28.33 28.40 28.28 28.09 28.10 28.82 28.97 29.23 29.67 31.43 32.38 30.62 29.54 27.26 25.09 24.28 25.47 27.82 28.31 30.01 25.45 21.84 20.70 20.70 20.70 15.66 13.69 12.65 12.45 12.41 12.16 12.78 14.12 15.17 13.23
21.86 21.22 22.10 23.11 24.72 25.69 25.45 26.23 26.97 27.26 26.94 26.87 27.15 27.73 28.87 28.82 29.10 29.71 31.17 32.12 31.96 27.43 25.31 25.18 25.34 28.32 28.47 29.78 26.28 24.79 23.89 20.35 15.30 13.54 11.89 10.83 10.28 9.69 9.77 9.58 10.16 10.36 11.84
16.40 17.25 19.79 21.55 23.16 24.45 23.86 24.47 25.27 26.29 25.82 25.53 25.54 25.28 25.85 27.86 28.67 29.19 30.07 31.21 32.68 27.66 25.57 25.33 26.55 28.32 29.37 28.74 27.14 26.45 20.77 15.68 14.03 11.78 11.34 10.61 10.68 9.75 8.97 7.72 7.98 8.35 8.73
14.45 16.67 19.23 20.73 21.80 22.81 23.59 24.23 23.94 23.74 22.91 22.91 23.71 24.03 25.22 26.30 27.08 27.13 27.63 28.65 30.61 28.00 26.20 25.36 26.34 27.11 27.36 22.85 21.79 16.31 14.01 13.87 13.19 12.62 11.17 9.60 8.93 7.80 7.33 8.27 6.68 7.25 5.37
13.44 16.36 19.16 20.30 20.23 20.88 22.15 22.41 22.58 23.74 23.90 22.83 23.67 24.53 23.88 23.74 25.91 27.47 27.49 27.11 29.02 25.30 24.14 24.13 23.82 21.40 18.58 12.46 11.00 11.02 11.50 11.73 11.53 11.20 8.90 7.10 6.76 6.58 5.02 6.27 5.84 4.88 5.34
11.74 15.50 16.55 17.42 18.55 19.50 19.45 19.70 23.36 24.04 24.74 25.40 26.12 25.44 26.06 28.61 29.08 28.43 28.06 28.74 29.93 26.98 21.54 20.66 17.98 15.08 11.74 9.83 8.08 7.40 8.34 8.77 9.09 8.92 8.02 7.76 6.00 5.37 3.41 3.61 3.45 3.64 3.16
8.94 11.30 14.47 15.52 16.82 16.75 17.08 16.93 15.84 19.07 22.63 23.59 24.40 25.26 26.08 26.83 27.82 26.96 27.01 28.12 29.45 26.92 20.25 17.87 14.89 13.43 11.67 10.31 8.81 7.69 6.72 8.14 7.78 7.09 6.92 6.54 5.82 5.31 2.67 1.19 1.37 1.20 0.10
7.88 10.33 13.64 14.56 14.82 14.98 14.88 14.80 15.73 15.27 14.70 16.46 21.36 22.72 24.68 26.49 27.84 26.44 26.37 26.95 25.15 19.45 17.35 15.89 13.69 13.00 11.09 10.26 9.67 8.58 7.69 5.64 5.61 5.38 4.97 4.15 3.19 1.28 0.99 0.31 0.34 -0.93 -0.89
8.66 11.05 11.56 12.18 13.39 13.03 13.72 14.64 14.75 14.79 14.61 15.00 17.02 19.65 20.41 22.99 24.28 22.23 23.30 22.48 13.91 12.21 13.09 13.01 13.16 12.41 11.45 10.99 9.88 8.41 5.96 4.12 4.18 3.47 2.91 1.54 1.07 0.62 -0.55 -0.56 -0.77 -2.71 -3.76
11.03 9.68 9.25 10.36 11.58 12.63 12.88 12.61 12.79 12.83 12.79 13.44 14.08 14.96 16.04 17.61 14.21 12.64 15.29 16.99 13.08 11.77 11.69 10.59 10.58 9.97 9.16 8.44 7.26 5.52 3.84 2.84 2.11 1.41 0.59 -0.47 -1.34 -1.10 -2.68 -3.81 -3.72 -7.38 -8.10
10.26 10.55 9.37 10.34 11.06 11.09 11.05 11.21 11.20 11.50 11.41 11.80 12.65 14.41 19.75 12.51 10.75 10.95 11.40 12.03 12.18 11.29 10.41 9.38 8.23 7.45 6.77 5.65 4.38 3.49 2.54 1.74 0.64 0.14 -1.19 -2.06 -3.27 -4.76 -3.07 -3.61 -5.39 -6.94 -6.57
8.88 9.73 9.83 9.47 9.83 9.54 9.51 8.50 9.95 9.97 10.24 10.68 11.80 13.49 16.57 13.74 11.81 10.43 9.38 8.99 9.25 9.15 9.10 7.90 6.70 6.03 5.22 3.97 3.21 2.09 0.81 -0.11 -0.80 -1.44 -2.22 -3.48 -5.35 -5.46 -6.83 -7.07 -8.24 -8.06 -10.36
9.30 8.82 8.70 9.07 9.15 8.33 8.72 9.19 9.13 9.17 8.93 9.46 10.21 10.56 11.26 10.84 11.05 10.29 8.74 7.46 6.72 5.69 6.10 6.71 5.40 3.77 3.64 3.57 3.45 2.68 0.74 -0.22 -1.19 -1.76 -3.84 -6.10 -7.48 -8.27 -9.11 -10.06 -11.62 -12.45 -11.98
7.64 7.89 7.63 7.70 7.82 7.33 6.81 7.70 7.60 7.76 7.77 7.59 8.19 8.59 8.40 8.28 7.97 8.00 7.02 5.96 5.08 3.55 2.68 2.54 3.33 2.09 0.41 0.30 0.41 0.80 0.95 -0.18 -1.70 -3.09 -4.10 -6.48 -8.65 -8.28 -10.35 -11.56 -10.85 -13.01 -12.98
7.56 6.94 6.51 6.04 5.96 5.81 5.78 5.64 5.34 5.39 5.81 5.44 5.26 5.55 5.79 5.03 4.48 4.93 4.33 2.87 2.11 1.16 -0.03 -0.36 -0.44 -0.18 -1.57 -2.83 -3.30 -3.98 -4.17 -1.55 -6.05 -5.47 -6.77 -6.98 -8.42 -10.46 -10.05 -11.24 -11.47 -13.11 -16.44
6.26 5.69 5.20 5.03 4.36 4.17 3.88 2.92 2.11 2.40 2.04 2.29 2.43 2.31 1.85 1.26 1.36 1.19 0.80 -0.94 -1.89 -2.30 -2.28 -3.14 -4.04 -4.69 -4.62 -4.97 -6.24 -5.46 -6.44 -1.63 -8.77 -7.88 -8.90 -8.96 -9.50 -10.17 -11.66 -13.16 -14.67 -15.55 -17.27
MSLP
1016.75 1016.63 1016.65 1016.52 1016.64 1016.79 1016.74 1016.56 1016.62 1016.55 1016.34 1016.35 1016.41 1016.29 1016.33 1016.37 1016.08 1015.89 1015.69 1015.65 1015.54 1015.42 1015.25 1015.17 1014.94 1014.98 1015.28 1015.31 1015.30 1015.20 1015.43 1015.76 1016.33 1017.56 1018.11 1019.30 1020.17 1020.64 1021.42 1021.95 1021.94 1021.88 1022.41
1016.51 1016.84 1016.62 1016.52 1016.37 1016.74 1016.82 1016.42 1016.40 1016.38 1016.33 1016.30 1016.31 1016.12 1016.08 1016.07 1015.90 1015.76 1015.67 1015.41 1015.23 1015.03 1014.92 1014.97 1014.73 1014.64 1014.82 1014.85 1014.94 1015.00 1015.17 1015.28 1015.82 1016.97 1018.07 1018.98 1019.42 1020.14 1020.77 1021.05 1021.29 1021.67 1022.29
1017.07 1017.01 1016.67 1016.31 1016.52 1016.73 1016.32 1016.09 1016.08 1016.11 1016.15 1016.07 1015.96 1015.87 1015.72 1015.54 1015.53 1015.51 1015.45 1015.34 1015.04 1014.91 1014.91 1014.63 1014.49 1014.53 1014.67 1014.56 1014.63 1014.59 1014.67 1014.80 1015.22 1015.91 1017.32 1018.38 1019.24 1019.81 1020.37 1020.93 1021.58 1021.80 1022.22
1016.88 1016.84 1016.95 1016.95 1016.85 1016.50 1016.33 1016.38 1016.35 1016.23 1016.03 1015.84 1015.63 1015.37 1015.23 1015.16 1015.09 1015.11 1015.13 1014.93 1014.77 1014.74 1014.81 1014.74 1014.77 1014.70 1014.66 1014.54 1014.57 1014.56 1014.61 1014.79 1014.94 1015.58 1016.57 1017.65 1018.68 1019.52 1019.91 1020.49 1021.36 1021.77 1022.16
1017.61 1017.43 1017.36 1017.33 1017.21 1016.96 1016.85 1016.74 1016.61 1016.36 1016.07 1015.86 1015.49 1015.14 1014.88 1014.77 1014.71 1014.80 1014.83 1014.75 1014.61 1014.48 1014.50 1014.65 1014.77 1014.83 1015.02 1015.01 1014.92 1014.84 1015.02 1015.01 1014.90 1015.17 1016.18 1016.97 1017.89 1019.00 1019.24 1019.75 1020.61 1021.35 1022.21
1018.21 1018.24 1018.08 1018.07 1017.78 1017.47 1017.22 1016.93 1016.57 1016.14 1015.80 1015.55 1015.28 1015.04 1014.77 1014.34 1014.24 1014.38 1014.63 1014.57 1014.46 1014.49 1014.44 1014.45 1014.67 1014.97 1015.21 1015.31 1015.51 1015.53 1015.46 1015.19 1015.13 1015.45 1015.88 1016.36 1017.10 1018.04 1018.69 1019.31 1020.18 1021.13 1022.16
1018.58 1018.37 1018.17 1018.07 1017.83 1017.52 1017.19 1016.79 1016.37 1015.88 1015.48 1015.12 1014.83 1014.64 1014.23 1014.00 1014.10 1014.21 1014.41 1014.44 1014.08 1013.90 1014.10 1014.53 1014.84 1015.11 1015.19 1015.41 1015.75 1015.91 1016.11 1016.25 1015.79 1015.42 1015.25 1016.12 1016.77 1017.79 1018.12 1018.80 1019.80 1020.23 1020.87
1018.84 1018.71 1018.62 1018.48 1018.09 1017.67 1017.21 1016.81 1016.27 1015.83 1015.50 1015.12 1014.80 1014.64 1014.24 1013.91 1013.85 1013.76 1014.00 1014.02 1013.96 1013.55 1013.12 1013.33 1014.24 1015.03 1015.49 1015.22 1015.77 1016.00 1016.49 1016.35 1016.54 1016.91 1016.52 1016.50 1016.51 1017.40 1018.96 1019.16 1019.65 1020.79 1021.84
1019.39 1019.37 1019.23 1018.82 1018.24 1017.75 1017.26 1016.78 1016.25 1015.83 1015.49 1015.12 1014.87 1014.56 1014.20 1013.77 1013.72 1013.53 1013.55 1013.42 1013.51 1013.50 1013.80 1013.46 1013.13 1014.21 1014.64 1015.78 1016.27 1016.45 1016.93 1017.12 1017.22 1016.89 1017.96 1018.15 1018.32 1018.68 1019.33 1019.68 1020.51 1020.80 1021.86
1020.08 1020.01 1019.73 1019.20 1018.63 1018.01 1017.40 1016.85 1016.35 1015.94 1015.38 1014.96 1014.54 1014.35 1014.03 1013.59 1013.49 1013.19 1013.11 1012.69 1012.54 1012.80 1013.17 1013.65 1014.16 1013.95 1014.23 1014.68 1015.58 1016.68 1017.30 1018.22 1017.56 1018.42 1018.61 1019.36 1019.59 1020.05 1019.78 1019.84 1020.54 1020.60 1021.41
1020.62 1020.29 1019.79 1019.27 1018.74 1018.12 1017.49 1017.05 1016.43 1015.87 1015.33 1014.89 1014.38 1013.99 1013.72 1013.45 1013.10 1012.95 1012.69 1012.38 1011.99 1012.22 1012.55 1013.29 1013.99 1014.14 1014.32 1014.51 1015.46 1016.19 1016.49 1017.95 1018.15 1018.55 1019.78 1020.50 1020.65 1020.82 1021.09 1021.18 1021.35 1021.09 1021.49
1021.23 1020.78 1020.21 1019.66 1019.08 1018.39 1017.82 1017.11 1016.56 1015.95 1015.25 1014.69 1014.12 1013.49 1013.16 1012.95 1012.85 1012.56 1012.38 1011.97 1011.76 1011.78 1011.85 1012.59 1013.25 1013.48 1013.66 1014.04 1014.59 1015.48 1016.80 1017.13 1017.47 1019.02 1020.08 1020.43 1020.91 1021.37 1021.80 1022.17 1022.19 1022.19 1022.48
1021.87 1021.15 1020.50 1019.84 1019.23 1018.61 1017.99 1017.20 1016.55 1016.09 1015.53 1014.87 1014.31 1013.65 1012.94 1012.61 1012.37 1012.29 1012.03 1011.63 1011.17 1011.34 1011.60 1011.94 1012.67 1012.99 1013.24 1013.64 1014.31 1015.21 1016.51 1017.80 1018.28 1018.86 1019.65 1020.26 1020.70 1021.76 1021.89 1022.70 1023.24 1023.09 1023.43
1022.24 1021.37 1020.48 1019.74 1019.13 1018.54 1018.05 1017.50 1016.75 1016.23 1015.64 1015.15 1014.43 1013.75 1013.08 1012.50 1012.13 1012.09 1011.83 1011.49 1011.10 1011.29 1011.68 1011.95 1012.40 1012.89 1013.25 1014.17 1014.94 1016.28 1016.91 1017.94 1018.43 1019.29 1019.73 1020.24 1021.35 1021.95 1021.76 1022.45 1023.20 1023.31 1023.99
1022.51 1021.58 1020.71 1020.05 1019.49 1018.90 1018.30 1017.91 1017.25 1016.63 1015.79 1014.97 1014.48 1013.89 1013.07 1012.36 1012.07 1011.85 1011.71 1011.34 1010.76 1011.03 1011.55 1011.95 1012.46 1013.04 1013.87 1015.21 1016.34 1017.11 1017.70 1018.46 1019.38 1019.61 1020.41 1020.23 1021.31 1022.04 1022.36 1022.73 1023.31 1024.00 1023.80
1022.69 1021.69 1021.04 1020.42 1019.82 1019.28 1018.58 1017.93 1017.56 1016.86 1015.96 1015.27 1014.19 1013.37 1012.64 1011.93 1011.56 1011.33 1011.13 1010.91 1010.57 1010.83 1011.57 1011.78 1012.68 1013.81 1014.62 1015.56 1016.61 1017.33 1018.31 1018.89 1019.60 1020.33 1020.71 1021.00 1021.28 1021.89 1022.72 1023.31 1023.66 1023.90 1024.00
1023.05 1022.23 1021.44 1020.78 1020.20 1019.68 1019.02 1018.43 1017.17 1016.20 1015.94 1015.17 1014.23 1013.12 1012.55 1011.69 1011.00 1011.09 1010.81 1010.46 1010.08 1010.60 1011.53 1012.27 1013.02 1013.88 1014.99 1015.85 1016.65 1017.37 1018.11 1018.93 1019.68 1020.55 1020.93 1021.18 1021.62 1021.95 1022.68 1023.59 1024.09 1024.18 1024.51
1023.00 1022.41 1021.74 1021.13 1020.50 1019.87 1019.27 1018.63 1017.58 1016.49 1015.67 1014.94 1014.32 1013.31 1012.67 1011.80 1010.87 1010.93 1010.72 1010.08 1010.07 1011.20 1012.11 1013.06 1013.78 1014.39 1015.18 1016.00 1016.87 1017.59 1018.32 1019.24 1019.70 1020.50 1021.07 1021.51 1021.91 1022.30 1022.73 1023.37 1023.99 1024.20 1024.79
1022.82 1022.08 1021.76 1021.25 1020.50 1019.89 1019.18 1018.52 1017.89 1017.01 1016.39 1015.71 1014.61 1013.60 1013.01 1012.58 1011.68 1011.62 1011.12 1010.53 1010.83 1011.99 1012.88 1013.84 1014.54 1015.10 1015.63 1016.21 1016.96 1017.74 1018.61 1019.37 1019.90 1020.66 1021.34 1021.72 1022.16 1022.42 1022.80 1023.33 1023.72 1024.35 1025.24
1022.43 1022.13 1021.73 1021.27 1020.53 1019.77 1019.32 1018.80 1018.02 1017.30 1016.83 1016.14 1015.30 1014.52 1013.74 1013.18 1012.77 1012.75 1012.47 1011.97 1012.06 1012.40 1013.29 1014.21 1015.00 1015.61 1016.11 1016.63 1017.25 1018.03 1018.83 1019.54 1020.17 1020.84 1021.41 1021.96 1022.51 1022.58 1022.94 1023.76 1023.99 1024.57 1024.86
1022.46 1021.97 1021.63 1021.05 1020.51 1020.06 1019.58 1018.98 1018.24 1017.55 1017.07 1016.48 1015.78 1015.21 1014.03 1014.21 1013.97 1013.88 1013.73 1013.47 1013.57 1013.46 1013.78 1014.51 1015.19 1015.84 1016.43 1017.01 1017.59 1018.27 1018.96 1019.63 1020.34 1020.92 1021.49 1022.12 1022.56 1023.08 1023.13 1023.80 1024.19 1024.16 1024.79
1022.18 1021.77 1021.41 1021.00 1020.50 1020.00 1019.54 1019.08 1018.37 1017.88 1017.32 1016.74 1016.09 1015.55 1014.99 1014.83 1014.71 1014.73 1014.71 1014.67 1014.62 1014.83 1014.87 1015.26 1015.84 1016.45 1016.90 1017.24 1017.64 1018.19 1018.77 1019.44 1020.10 1020.71 1021.29 1021.83 1022.46 1022.98 1023.53 1023.98 1024.23 1024.48 1024.80
1021.59 1021.26 1020.98 1020.58 1020.32 1019.97 1019.49 1018.94 1018.43 1017.97 1017.44 1016.99 1016.60 1016.04 1015.61 1015.40 1015.33 1015.24 1015.33 1015.52 1015.57 1015.62 1015.73 1015.87 1016.29 1016.85 1017.26 1017.63 1018.00 1018.33 1018.69 1019.10 1019.64 1020.37 1021.01 1021.70 1022.34 1022.83 1023.34 1023.77 1024.14 1024.68 1025.08
1021.50 1021.13 1020.80 1020.44 1020.05 1019.63 1019.28 1018.79 1018.46 1018.02 1017.57 1017.14 1016.90 1016.48 1016.12 1015.93 1015.83 1015.78 1015.83 1015.95 1016.06 1016.19 1016.46 1016.63 1016.76 1017.09 1017.57 1017.87 1018.13 1018.40 1018.59 1018.98 1019.49 1020.10 1020.75 1021.59 1022.27 1022.71 1023.23 1023.62 1024.10 1024.50 1024.84
1021.18 1020.92 1020.61 1020.25 1019.84 1019.40 1018.96 1018.61 1018.32 1017.96 1017.55 1017.30 1017.06 1016.72 1016.45 1016.40 1016.32 1016.22 1016.23 1016.28 1016.39 1016.59 1016.77 1016.94 1017.13 1017.30 1017.65 1018.04 1018.39 1018.76 1019.08 1019.26 1019.84 1020.31 1020.94 1021.45 1022.05 1022.59 1022.92 1023.38 1023.79 1024.22 1024.75
1020.77 1020.53 1020.25 1019.95 1019.61 1019.24 1018.86 1018.54 1018.23 1017.88 1017.57 1017.36 1017.13 1016.79 1016.58 1016.50 1016.46 1016.45 1016.46 1016.51 1016.55 1016.67 1016.89 1017.15 1017.36 1017.53 1017.71 1018.01 1018.40 1018.78 1019.26 1019.54 1020.16 1020.45 1021.02 1021.34 1021.86 1022.35 1022.73 1023.21 1023.64 1023.97 1024.48
Wind_Speed
5 5 6 6 7 7 7 7 8 8 7 8 8 8 8 8 8 7 8 8 8 8 7 7 8 5 5 4 3 3 4 4 4 1 3 10 10 9 7 8 7 7 7
5 6 7 8 7 7 8 8 7 8 7 8 7 8 8 8 7 8 8 8 8 9 8 8 8 5 7 6 4 5 4 4 3 7 8 7 7 9 9 8 6 6 7
5 5 6 6 6 8 8 7 7 8 8 9 9 9 9 8 8 8 9 9 8 9 8 8 8 6 7 5 4 4 4 4 4 6 6 6 6 6 8 7 6 4 7
7 6 6 6 7 8 8 8 8 8 9 9 9 10 9 9 9 9 9 9 8 8 7 6 7 6 7 6 5 5 5 5 5 8 8 10 8 8 7 8 7 6 6
8 7 8 8 8 8 8 8 9 9 9 10 10 10 10 9 7 9 8 8 8 9 6 5 5 5 6 6 2 4 5 5 5 8 8 9 8 7 9 6 7 7 4
7 6 7 6 6 7 7 8 8 8 9 9 10 10 11 9 10 10 9 8 7 7 7 6 4 2 2 3 5 6 6 6 7 6 6 9 9 8 7 8 8 8 5
6 5 6 6 7 7 7 8 8 9 9 10 10 10 12 11 13 11 12 9 8 7 7 5 4 3 5 5 4 5 6 10 6 3 10 9 9 8 9 9 7 3 4
7 8 8 9 9 9 9 8 8 8 9 9 10 10 11 10 14 12 13 11 9 9 8 8 7 5 6 6 7 6 5 6 5 6 6 6 8 8 5 5 7 8 7
7 9 10 10 10 10 10 10 9 9 9 9 9 10 11 11 14 13 13 9 9 8 7 6 9 8 11 11 5 6 6 6 8 16 16 15 13 13 10 7 4 6 3
10 11 10 10 10 11 11 10 9 8 10 8 9 9 11 12 15 17 15 9 9 7 5 6 5 8 15 18 9 8 6 6 9 9 11 12 12 9 9 5 3 4 5
11 11 11 10 11 10 10 9 10 10 9 9 10 9 10 10 11 18 20 12 8 7 6 6 6 14 15 18 15 9 9 9 11 8 7 5 5 6 5 6 5 4 4
11 11 11 10 9 9 10 9 9 9 10 10 10 9 7 7 10 14 21 24 16 10 9 7 7 19 20 23 16 17 19 14 9 7 6 5 5 5 5 5 7 7 7
11 10 10 10 9 9 10 10 9 9 9 10 9 10 10 8 7 14 21 23 22 10 7 13 17 20 21 19 17 18 15 6 6 6 6 6 6 5 7 6 6 8 8
10 10 9 9 9 9 7 7 7 8 9 10 9 10 10 9 6 5 8 10 17 12 13 10 12 13 10 11 9 11 7 5 5 6 6 6 5 5 5 5 5 6 5
9 9 8 8 9 10 8 8 8 8 9 9 9 9 10 10 8 12 13 9 7 9 8 5 6 6 8 8 7 7 6 5 3 4 5 7 6 5 5 4 4 2 2
9 7 7 7 8 8 9 9 13 17 19 21 21 16 11 17 22 19 20 21 23 20 5 7 7 7 8 8 8 7 5 5 5 5 5 5 6 6 5 4 4 3 4
7 8 7 7 7 8 8 9 11 9 17 19 20 20 21 23 22 12 17 18 19 19 5 6 7 8 7 7 7 7 7 5 7 4 4 4 5 5 7 5 4 4 3
6 8 6 7 7 7 7 9 8 9 11 10 14 18 16 21 7 11 17 15 4 8 5 4 4 5 6 6 6 6 6 6 5 5 5 4 5 5 5 5 5 4 3
7 6 5 7 7 7 7 8 8 8 8 10 10 12 11 19 16 15 18 4 8 7 7 5 4 4 5 6 6 6 6 5 5 5 4 5 5 5 5 4 5 5 4
5 7 6 6 7 6 6 7 7 7 8 8 8 8 8 8 6 6 6 3 5 6 7 6 5 5 5 5 6 6 6 6 5 4 4 5 4 3 4 4 5 5 3
5 6 7 6 6 6 6 7 7 7 7 7 7 7 13 5 5 5 4 4 3 3 5 5 5 5 5 6 6 6 6 5 4 4 5 5 5 4 4 4 4 2 2
5 5 5 6 6 6 6 6 6 7 7 7 7 6 13 3 3 3 4 4 4 4 4 4 4 3 3 5 6 6 6 6 6 6 6 5 5 4 4 4 3 3 3
5 6 6 6 6 6 6 6 6 6 6 7 7 6 5 4 3 2 2 2 2 3 3 3 3 3 3 3 3 5 6 6 6 6 6 6 5 5 4 4 3 2 3
6 6 7 6 6 5 6 6 6 7 6 6 6 6 5 4 3 3 2 2 2 3 2 2 2 4 3 3 3 3 3 4 5 6 7 6 6 6 5 3 4 4 3
5 6 6 6 6 6 6 6 6 6 6 5 5 5 5 4 4 3 1 1 1 1 2 2 2 3 6 6 5 5 5 8 6 7 5 6 7 8 5 4 4 4 3
5 6 6 6 6 6 6 6 6 6 5 5 5 4 4 4 3 3 2 2 2 2 2 2 3 4 5 5 6 8 8 10 8 8 6 5 6 5 5 4 6 2 3
Wind_Direction
287 285 276 268 278 274 269 269 270 275 276 273 272 270 270 269 263 260 261 264 262 262 255 247 249 234 238 231 221 229 199 184 141 86 95 152 157 152 165 149 167 139 109
313 296 292 294 294 284 277 279 279 278 279 275 273 271 272 268 268 261 260 258 253 252 246 244 248 219 231 221 214 218 222 180 146 153 145 160 163 162 160 153 149 159 122
325 308 299 299 291 278 281 286 285 280 272 268 267 262 263 264 263 260 260 261 258 260 259 248 249 226 236 214 216 199 193 168 201 146 134 159 145 158 150 134 139 151 120
345 338 322 315 312 313 313 305 293 284 279 273 269 268 266 266 262 259 260 258 260 258 259 265 272 256 247 226 217 208 180 180 172 154 148 154 154 172 162 152 150 150 148
337 337 331 330 323 321 315 308 301 293 285 284 280 274 268 262 260 261 253 255 254 254 243 248 258 283 329 302 232 199 197 189 179 161 159 164 159 168 182 168 149 136 90
332 322 326 320 316 307 303 300 295 289 285 280 274 273 275 269 257 239 237 258 246 251 250 233 220 174 227 247 286 281 259 195 184 172 168 177 167 169 149 160 146 150 165
327 332 341 331 319 313 307 302 298 294 291 283 278 272 270 266 263 246 234 244 247 237 237 236 229 196 190 175 166 113 48 12 313 210 169 167 151 158 153 151 166 161 107
333 345 344 335 327 324 318 309 303 300 296 293 289 283 277 273 268 249 240 239 249 245 214 195 203 209 211 170 153 128 97 66 32 10 50 83 112 128 140 134 133 105 95
348 341 334 328 324 322 316 314 310 304 298 292 288 285 279 279 273 254 242 235 242 249 254 228 183 189 188 191 169 155 129 109 90 99 94 95 105 114 118 119 144 145 108
342 330 325 323 321 317 315 314 310 299 291 290 285 280 278 281 277 272 245 238 226 220 209 218 232 189 182 175 171 165 139 142 122 106 97 89 94 102 96 101 159 144 113
331 327 325 326 320 316 315 314 308 304 299 296 290 289 280 275 274 272 262 248 224 211 186 182 194 197 192 191 162 163 160 149 133 107 108 105 101 92 81 71 53 88 106
333 325 322 320 320 317 314 313 312 305 302 303 302 299 288 282 264 274 273 259 232 209 191 175 181 199 199 194 172 173 174 152 137 136 143 140 124 112 101 91 83 79 53
329 323 321 321 319 326 318 317 316 317 313 310 307 306 307 303 286 266 276 269 250 208 173 177 190 205 206 197 168 183 138 141 141 145 156 154 135 128 111 94 85 94 95
317 318 317 319 324 317 318 311 317 315 313 311 309 308 308 305 294 267 264 270 265 198 182 192 199 208 164 123 119 103 112 124 146 161 144 116 127 150 139 138 136 134 127
314 311 320 328 325 320 318 314 308 297 297 299 296 293 293 294 291 284 280 277 261 179 166 169 184 138 126 111 108 106 103 117 151 123 149 141 151 153 132 138 126 150 166
319 329 330 324 319 317 317 312 304 306 313 308 303 300 294 280 292 281 291 282 281 176 168 166 139 143 136 136 131 125 127 141 140 151 155 158 149 149 138 143 142 157 137
314 313 320 312 318 315 314 311 311 317 317 319 319 319 315 303 295 276 303 293 283 176 166 150 148 151 143 142 139 143 144 152 135 151 152 145 144 143 145 157 165 150 135
300 298 301 313 309 310 317 310 314 323 324 324 324 322 326 330 319 301 310 303 221 101 107 116 130 136 139 141 144 147 139 137 144 151 149 146 152 152 159 161 165 141 126
307 305 317 304 302 308 300 310 310 316 317 315 319 328 353 337 337 348 332 311 123 115 105 102 109 121 129 131 132 130 134 145 146 147 149 149 159 162 158 150 138 136 148
286 288 292 299 304 308 313 309 311 319 315 315 320 335 323 330 356 359 356 51 124 117 122 125 123 121 124 126 126 128 135 145 147 148 147 152 159 164 141 154 156 160 174
305 304 311 293 308 311 302 303 312 314 312 314 315 319 354 2 2 8 6 25 35 86 115 123 130 130 130 131 132 141 146 147 148 152 151 157 153 165 146 164 156 119 130
288 293 296 297 298 297 305 301 304 307 307 310 317 322 336 351 14 24 35 34 45 57 74 102 108 117 139 150 151 153 157 161 161 162 161 153 152 151 152 150 155 153 135
288 291 293 293 292 295 292 301 302 299 307 309 311 314 324 340 351 21 58 69 72 75 61 88 110 118 115 129 144 160 167 172 166 162 155 151 155 153 158 157 149 139 167
282 283 284 287 286 291 285 296 299 293 294 301 305 309 317 327 331 358 56 83 97 94 94 85 104 140 140 140 148 151 139 133 139 155 150 155 158 157 158 160 168 170 151
278 281 285 288 289 293 296 293 295 298 300 300 298 303 309 311 308 310 342 51 96 149 159 153 153 165 168 168 163 157 161 152 145 148 144 150 157 162 167 163 169 161 152
280 282 282 285 285 285 288 290 288 291 290 287 285 283 283 285 286 288 276 245 223 208 195 185 191 188 173 172 165 162 170 169 164 162 151 153 156 160 160 172 175 155 154